Hourly Weather Ludlow

Today, 18 May, Tuesday

Time Temperature Precipitation Wind Pressure Humidity
00:00 +9°C° 0.2 mm 1 mps 726 mmHg 93%
01:00 +9°C° 0.2 mm 1 mps 726 mmHg 92%
02:00 +9°C° 0 mm 1 mps 726 mmHg 93%
03:00 +9°C° 0 mm 1 mps 726 mmHg 93%
04:00 +10°C° 0 mm 1 mps 725 mmHg 93%
05:00 +11°C° 0 mm 1 mps 726 mmHg 89%
06:00 +12°C° 0 mm 1 mps 726 mmHg 84%
07:00 +14°C° 0 mm 2 mps 726 mmHg 79%
08:00 +14°C° 0 mm 3 mps 726 mmHg 73%
09:00 +15°C° 0 mm 4 mps 726 mmHg 66%
10:00 +17°C° 0 mm 5 mps 726 mmHg 60%
11:00 +17°C° 0.1 mm 5 mps 726 mmHg 56%
12:00 +19°C° 0.1 mm 4 mps 726 mmHg 51%
13:00 +20°C° 0.1 mm 4 mps 726 mmHg 47%
14:00 +20°C° 0 mm 4 mps 725 mmHg 46%
15:00 +20°C° 0 mm 4 mps 725 mmHg 45%
16:00 +21°C° 0 mm 4 mps 725 mmHg 45%
17:00 +18°C° 0 mm 3 mps 725 mmHg 55%
18:00 +16°C° 0 mm 2 mps 725 mmHg 65%
19:00 +14°C° 0 mm 1 mps 726 mmHg 75%
20:00 +13°C° 0 mm 1 mps 726 mmHg 79%
21:00 +12°C° 0 mm 1 mps 726 mmHg 83%
22:00 +11°C° 0 mm 1 mps 726 mmHg 87%
23:00 +10°C° 0 mm 1 mps 726 mmHg 88%

Tomorrow, 19 May, Wednesday

Time Temperature Precipitation Wind Pressure Humidity
00:00 +10°C° 0 mm 1 mps 726 mmHg 90%
01:00 +10°C° 0 mm 1 mps 726 mmHg 91%
02:00 +9°C° 0 mm 1 mps 726 mmHg 92%
03:00 +9°C° 0 mm 1 mps 726 mmHg 93%
04:00 +9°C° 0 mm 1 mps 726 mmHg 94%
05:00 +11°C° 0 mm 1 mps 727 mmHg 82%
06:00 +13°C° 0 mm 1 mps 727 mmHg 70%
07:00 +15°C° 0 mm 1 mps 728 mmHg 58%
08:00 +17°C° 0 mm 2 mps 728 mmHg 51%
09:00 +19°C° 0 mm 2 mps 728 mmHg 43%
10:00 +21°C° 0 mm 3 mps 728 mmHg 36%
11:00 +21°C° 0 mm 3 mps 728 mmHg 36%
12:00 +22°C° 0 mm 3 mps 728 mmHg 35%
13:00 +24°C° 0 mm 3 mps 728 mmHg 35%
14:00 +24°C° 0 mm 3 mps 728 mmHg 38%
15:00 +24°C° 0 mm 3 mps 728 mmHg 41%
16:00 +24°C° 0 mm 3 mps 728 mmHg 43%
17:00 +21°C° 0 mm 2 mps 728 mmHg 54%
18:00 +20°C° 0 mm 1 mps 728 mmHg 66%
19:00 +18°C° 0 mm 1 mps 728 mmHg 77%
20:00 +16°C° 0 mm 1 mps 728 mmHg 79%
21:00 +15°C° 0 mm 1 mps 728 mmHg 82%
22:00 +13°C° 0 mm 0 mps 728 mmHg 84%
23:00 +12°C° 0 mm 0 mps 728 mmHg 85%

Day after tomorrow, 20 May, Thursday

Time Temperature Precipitation Wind Pressure Humidity
00:00 +12°C° 0 mm 0 mps 728 mmHg 87%
01:00 +12°C° 0 mm 0 mps 728 mmHg 88%
02:00 +11°C° 0 mm 0 mps 728 mmHg 89%
03:00 +11°C° 0 mm 0 mps 728 mmHg 90%
04:00 +11°C° 0 mm 0 mps 729 mmHg 91%
05:00 +13°C° 0 mm 0 mps 729 mmHg 85%
06:00 +15°C° 0 mm 0 mps 730 mmHg 78%
07:00 +17°C° 0 mm 0 mps 730 mmHg 72%
08:00 +19°C° 0 mm 0 mps 730 mmHg 66%
09:00 +21°C° 0 mm 0 mps 730 mmHg 60%
10:00 +23°C° 0 mm 0 mps 731 mmHg 54%
11:00 +24°C° 0 mm 0 mps 730 mmHg 49%
12:00 +27°C° 0 mm 1 mps 730 mmHg 45%
13:00 +28°C° 0 mm 1 mps 730 mmHg 40%
14:00 +27°C° 0 mm 1 mps 730 mmHg 44%
15:00 +26°C° 0 mm 1 mps 730 mmHg 47%
16:00 +26°C° 0 mm 1 mps 729 mmHg 50%
17:00 +24°C° 0 mm 1 mps 729 mmHg 59%
18:00 +22°C° 0 mm 1 mps 729 mmHg 67%
19:00 +20°C° 0 mm 1 mps 729 mmHg 75%
20:00 +18°C° 0.1 mm 1 mps 729 mmHg 80%
21:00 +16°C° 0.1 mm 1 mps 730 mmHg 84%
22:00 +15°C° 0.1 mm 1 mps 730 mmHg 89%
23:00 +14°C° 0 mm 1 mps 730 mmHg 90%

21 May, Friday

Time Temperature Precipitation Wind Pressure Humidity
00:00 +14°C° 0 mm 1 mps 730 mmHg 90%
01:00 +13°C° 0 mm 1 mps 729 mmHg 91%
02:00 +13°C° 0 mm 1 mps 729 mmHg 92%
03:00 +13°C° 0 mm 1 mps 729 mmHg 92%
04:00 +12°C° 0 mm 1 mps 729 mmHg 93%
05:00 +13°C° 0.1 mm 1 mps 730 mmHg 92%
06:00 +13°C° 0.1 mm 0 mps 730 mmHg 91%
07:00 +14°C° 0.1 mm 0 mps 730 mmHg 90%
08:00 +14°C° 0.3 mm 0 mps 730 mmHg 91%
09:00 +15°C° 0.3 mm 1 mps 730 mmHg 92%
10:00 +16°C° 0.3 mm 1 mps 730 mmHg 92%
11:00 +16°C° 0.2 mm 1 mps 729 mmHg 94%
12:00 +16°C° 0.2 mm 1 mps 729 mmHg 95%
13:00 +16°C° 0.2 mm 1 mps 729 mmHg 96%
14:00 +16°C° 0.1 mm 1 mps 728 mmHg 96%
15:00 +16°C° 0.1 mm 1 mps 728 mmHg 96%
16:00 +18°C° 0.1 mm 1 mps 728 mmHg 96%
17:00 +16°C° 0.6 mm 1 mps 728 mmHg 97%
18:00 +16°C° 0.6 mm 1 mps 727 mmHg 98%
19:00 +15°C° 0.6 mm 1 mps 727 mmHg 99%
20:00 +15°C° 2.2 mm 1 mps 727 mmHg 99%
21:00 +15°C° 2.2 mm 1 mps 726 mmHg 99%
22:00 +15°C° 2.2 mm 1 mps 726 mmHg 99%
23:00 +15°C° 1.3 mm 1 mps 726 mmHg 99%

22 May, Saturday

Time Temperature Precipitation Wind Pressure Humidity
00:00 +15°C° 1.3 mm 1 mps 725 mmHg 99%
01:00 +15°C° 1.3 mm 1 mps 725 mmHg 99%
02:00 +15°C° 0.4 mm 1 mps 724 mmHg 99%
03:00 +15°C° 0.4 mm 1 mps 724 mmHg 99%
04:00 +15°C° 0.4 mm 1 mps 724 mmHg 99%
05:00 +15°C° 0.1 mm 1 mps 724 mmHg 99%
06:00 +14°C° 0.1 mm 0 mps 723 mmHg 99%
07:00 +15°C° 0.1 mm 0 mps 723 mmHg 99%
08:00 +16°C° 0.2 mm 1 mps 724 mmHg 99%
09:00 +16°C° 0.2 mm 1 mps 724 mmHg 99%
10:00 +16°C° 0.2 mm 1 mps 724 mmHg 99%
11:00 +16°C° 0.4 mm 1 mps 724 mmHg 99%
12:00 +16°C° 0.4 mm 1 mps 723 mmHg 99%
13:00 +16°C° 0.4 mm 1 mps 723 mmHg 98%
14:00 +16°C° 0.1 mm 1 mps 723 mmHg 98%
15:00 +16°C° 0.1 mm 1 mps 723 mmHg 98%
16:00 +16°C° 0.1 mm 1 mps 723 mmHg 98%
17:00 +15°C° 0 mm 1 mps 723 mmHg 99%
18:00 +15°C° 0 mm 1 mps 723 mmHg 99%
19:00 +15°C° 0 mm 1 mps 723 mmHg 99%
20:00 +15°C° 0 mm 1 mps 722 mmHg 99%
21:00 +15°C° 0 mm 1 mps 722 mmHg 99%
22:00 +14°C° 0 mm 1 mps 722 mmHg 99%
23:00 +14°C° 0.1 mm 1 mps 722 mmHg 99%

23 May, Sunday

Time Temperature Precipitation Wind Pressure Humidity
00:00 +14°C° 0.1 mm 1 mps 721 mmHg 99%
01:00 +13°C° 0.1 mm 0 mps 721 mmHg 99%
02:00 +13°C° 0.1 mm 0 mps 721 mmHg 99%
03:00 +13°C° 0.1 mm 0 mps 720 mmHg 99%
04:00 +13°C° 0.1 mm 0 mps 720 mmHg 99%
05:00 +14°C° 0 mm 0 mps 720 mmHg 98%
06:00 +14°C° 0 mm 0 mps 720 mmHg 98%
07:00 +15°C° 0 mm 0 mps 720 mmHg 97%
08:00 +16°C° 0.1 mm 0 mps 720 mmHg 92%
09:00 +19°C° 0.1 mm 1 mps 720 mmHg 86%
10:00 +20°C° 0.1 mm 1 mps 720 mmHg 81%
11:00 +20°C° 0.1 mm 1 mps 719 mmHg 78%
12:00 +21°C° 0.1 mm 1 mps 719 mmHg 75%
13:00 +20°C° 0.1 mm 2 mps 719 mmHg 73%
14:00 +19°C° 0.8 mm 2 mps 718 mmHg 81%
15:00 +18°C° 0.8 mm 1 mps 718 mmHg 89%
16:00 +16°C° 0.8 mm 1 mps 718 mmHg 98%
17:00 +14°C° 0.5 mm 2 mps 718 mmHg 98%
18:00 +13°C° 0.5 mm 2 mps 719 mmHg 97%
19:00 +10°C° 0.5 mm 2 mps 719 mmHg 97%
20:00 +10°C° 0 mm 2 mps 720 mmHg 97%
21:00 +9°C° 0 mm 2 mps 720 mmHg 96%
22:00 +9°C° 0 mm 2 mps 720 mmHg 96%
23:00 +8°C° 0 mm 2 mps 720 mmHg 96%
Show more

We Need Your Consent

Meteoprog and our Service Providers may store and access personal data such as cookies, device identifiers or other similar technologies on your device and process such data to personalise content and ads, as well as provide social media features and to analyse the traffic.

  • Store and/or access information on your device

    Cookies, device identifiers or other information can be stored or accessed on your device for the purposes indicated above.

  • Personalised ads and content, ad and content measurement, audience insights, and products development

    Ads and content can be personalised based on a profile. More data can be added to better personalise ads and content. Ad and content performance can be measured. Insights about the audience who saw the ads and content can be derived. Such data can be used to develop or improve user’s experience, systems and software.

By clicking ‘I Agree’ you will allow the use of indicated cookies, device identifiers, web beacons or other similar technologies. Your settings can be changed in the browser on your device.

For certain purposes, legitimate interests may be relied on, rather than consent. You can read more about this in our Privacy and Cookie Policy.